TimePST,TemperatureF,Dew PointF,Humidity,Sea Level PressureIn,VisibilityMPH,Wind Direction,Wind SpeedMPH,Gust SpeedMPH,PrecipitationIn,Events,Conditions,WindDirDegrees,DateUTC
12:55 AM,48.9,41.0,74,30.08,10.0,Calm,Calm,-,N/A,,Clear,0,2014-02-13 08:55:00
1:55 AM,48.0,41.0,77,30.07,10.0,NE,4.6,-,N/A,,Clear,40,2014-02-13 09:55:00
2:55 AM,48.9,39.0,69,30.06,10.0,ENE,3.5,-,N/A,,Clear,60,2014-02-13 10:55:00
3:55 AM,48.9,37.0,64,30.06,10.0,ENE,4.6,-,N/A,,Clear,70,2014-02-13 11:55:00
4:55 AM,46.9,37.0,68,30.06,10.0,Calm,Calm,-,N/A,,Clear,0,2014-02-13 12:55:00
5:55 AM,48.0,36.0,63,30.08,10.0,ENE,4.6,-,N/A,,Clear,70,2014-02-13 13:55:00
6:55 AM,46.9,37.9,71,30.09,10.0,Calm,Calm,-,N/A,,Clear,0,2014-02-13 14:55:00
7:55 AM,54.0,36.0,51,30.09,10.0,East,3.5,-,N/A,,Clear,80,2014-02-13 15:55:00
8:55 AM,64.0,32.0,30,30.09,10.0,East,3.5,-,N/A,,Clear,80,2014-02-13 16:55:00
9:55 AM,68.0,39.9,36,30.10,10.0,SW,3.5,-,N/A,,Clear,230,2014-02-13 17:55:00
10:55 AM,70.0,42.1,36,30.10,10.0,SW,6.9,-,N/A,,Clear,220,2014-02-13 18:55:00
11:55 AM,71.1,44.1,38,30.07,10.0,SW,5.8,-,N/A,,Clear,220,2014-02-13 19:55:00
12:55 PM,73.0,45.0,37,30.04,10.0,Variable,5.8,-,N/A,,Clear,0,2014-02-13 20:55:00
1:55 PM,73.0,44.1,35,30.03,10.0,SW,8.1,-,N/A,,Clear,230,2014-02-13 21:55:00
2:55 PM,72.0,46.9,41,30.01,10.0,SW,6.9,-,N/A,,Clear,220,2014-02-13 22:55:00
3:55 PM,68.0,52.0,56,30.01,10.0,West,6.9,-,N/A,,Clear,260,2014-02-13 23:55:00
4:55 PM,66.0,53.1,63,30.00,10.0,SSW,3.5,-,N/A,,Clear,210,2014-02-14 00:55:00
5:55 PM,63.0,54.0,72,30.01,10.0,WSW,3.5,-,N/A,,Clear,250,2014-02-14 01:55:00
6:55 PM,57.9,52.0,81,30.02,10.0,Calm,Calm,-,N/A,,Clear,0,2014-02-14 02:55:00
7:55 PM,57.0,52.0,83,30.03,10.0,Calm,Calm,-,N/A,,Clear,0,2014-02-14 03:55:00
8:55 PM,55.0,51.1,86,30.04,10.0,Calm,Calm,-,N/A,,Clear,0,2014-02-14 04:55:00
9:55 PM,53.1,50.0,89,30.05,9.0,Calm,Calm,-,N/A,,Clear,0,2014-02-14 05:55:00
10:55 PM,51.1,46.9,86,30.05,10.0,NE,5.8,-,N/A,,Clear,40,2014-02-14 06:55:00
11:55 PM,48.0,45.0,89,30.05,10.0,Calm,Calm,-,N/A,,Clear,0,2014-02-14 07:55:00